World > North America > United States > Texas

Hourly Hornsby Bend, TX Regional Weather

Feedback E-mail the Weather

Quick WX

Hornsby Bend, TX Weather Maps

°F °C°F °C
Hornsby Bend Weather Map
UTC Time: 7/1/2022, 23:53
Your Time:

Hornsby Bend, TX Regional Weather

Expires:202207020000;;519460
ASUS44 KSJT 012315
RWRSJT
WEST CENTRAL TEXAS REGIONAL WEATHER ROUNDUP
NATIONAL WEATHER SERVICE SAN ANGELO TX
600 PM CDT FRI JUL 01 2022

NOTE: "FAIR" INDICATES FEW OR NO CLOUDS BELOW 12,000 FEET WITH NO
SIGNIFICANT WEATHER AND/OR OBSTRUCTIONS TO VISIBILITY.


TXZ145-158-159-173-191-192-194-205-207-220-223-020000-
CENTRAL AND SOUTH CENTRAL TEXAS
  
CITY           SKY/WX    TMP DP  RH WIND       PRES   REMARKS
AUSTIN/BERGSTM MOSUNNY   93  67  42 NE9       29.86F                  
WACO           MOSUNNY   97  65  34 CALM      29.87F                  
HILLSBORO      PTCLDY    94  65  38 E8        29.88F                  
TEMPLE         MOSUNNY   93  67  42 VRB5      29.89F                  
KILLEEN-GRAY   MOSUNNY   94  65  38 E13       29.86F                  
FORT HOOD      SUNNY     95  66  38 SE14      29.88F                  
GEORGETOWN     SUNNY     94  67  41 VRB7      29.90F                  
LAGO VISTA     FAIR      98  67  35 SE8       29.91F                  
SAN MARCOS     MOSUNNY   94  69  44 E9        29.87F                  
NEW BRAUNFELS  MOSUNNY   98  68  37 E13G22    29.84F                  
RANDOLPH AFB   MOSUNNY   97  65  35 E15       29.83F                  
SAN ANTONIO    MOSUNNY  100  63  29 SE12      29.85F                  
STINSON        MOSUNNY   99  67  35 E9        29.81F                  
PLEASANTON     NOT AVBL                                               
LA GRANGE      MOSUNNY   94  72  47 CALM      29.85F                  
GIDDINGS       PTCLDY    93  69  45 S5        29.89F                  
$$


SKY/WX - Weather  TMP - Temperature  DP - Dew Point  RH - Humidity
WIND - Wind Direction/Speed PRES - Barometric Pressure VSB - Visibility
WCI - Wind Chill Index E13G22 Wind - East Wind 13 mph/Gusts of 22 mph

Trending Headlines

Hornsby Bend Radar Loop



Hornsby Bend Quick Facts


National Two Day Weather Forecast


E-mail the Hornsby Bend Weather Forecast

Voice your opinion or tell us about page issues...